Location: Fours
(44.3167°N, 6.7000°E)
Time: 09:12:20
(UTC+00:00)

BREEZE-M DEB (TANK) - Pass Details

Date: 30 November 2020
Orbit: 306 x 17161 km, 49.4° (Epoch: 25 January)

Event Time Altitude Azimuth Distance (km) Brightness Sun altitude
Rises 16:30:39 0° 261° (W) 2,592 8.1 -6.4°
Reaches altitude 10° 16:33:05 10° 271° (W) 1,323 6.0 -6.8°
Maximum altitude 16:35:19 38° 344° (NNW) 487 2.5 -7.2°
Enters shadow 16:37:31 10° 57° (ENE) 1,300 4.1 -7.5°
